x

Boston 16 Nm East Of Boston, Ma (44013) Wave Buoy

11:50 - Tue 27th Jan 2015 All times are EST. -5 hours from GMT.

  • Sig Wave height 27.2ft
  • Swell Direction
  • Peak Period 14s
  • Average Period 9s
  • Wind
    47mph, 60mph gusts
  • Sea Temp 40°f
  • Ar Temp 26°f
  • Sea Pressure 994mb
  • Boston 16 Nm East Of Boston, Ma
  • Boston 16 Nm East Of Boston, Ma

More Historic Weather Station data

Upgrade to MSW Pro to gain access to the past 30 days of data for over 8000 Wavebouys and Weather Stations around the globe.

Join Pro

Comparision Forecast

View Surf forecast
   
Ter 01/27 11:50 27ft 14s 9s 47 60 mph 994mb 40f 26f
10:50 25.5ft 12s 9s 45 54 mph 995.8mb 40f 26f
9:50 24ft 11s 9s 47 60 mph 996.5mb 40f 25f
8:50 22.5ft 12s 9s 45 56 mph 997.1mb 41f 24f
7:50 24ft 11s 9s 45 58 mph 997.7mb 41f 24f
6:50 22ft 11s 8s 47 56 mph 997.9mb 41f 23f
5:50 22.5ft 11s 9s 47 60 mph 997.7mb 41f 24f
4:50 22.5ft 11s 8s 47 65 mph 997.4mb 41f 25f
3:50 19ft 11s 8s 47 58 mph 999.2mb 41f 27f
2:50 19.5ft 10s 8s 47 56 mph 1001.2mb 41f 28f
1:50 19.5ft 8s 8s 45 60 mph 1002.6mb 41f 29f
12:50 15.5ft 9s 7s 47 56 mph 1004.3mb 41f 29f
Seg 01/26 11:50 14ft 8s 7s 40 51 mph 1006.8mb 41f 30f
10:50 13ft 8s 7s 40 47 mph 1009.3mb 41f 30f
9:50 11ft 7s 6s 38 45 mph 1011.2mb 41f 31f
8:50 10ft 7s 6s 34 40 mph 1013.9mb 41f 31f
7:50 7.5ft 6s 5s 34 38 mph 1015mb 41f 31f
6:50 7ft 6s 5s 31 36 mph 1015.6mb 41f 31f
5:50 6ft 6s 5s 29 34 mph 1016.4mb 41f 31f
4:50 5ft 6s 5s 25 31 mph 1016.4mb 41f 30f
3:50 4.5ft 5s 4s 22 29 mph 1016.6mb 41f 30f
2:50 4.5ft 5s 4s 22 27 mph 1017mb 40f 29f
1:50 4ft 5s 4s 22 27 mph 1017.3mb 40f 29f
12:50 3.5ft 5s 4s 20 27 mph 1018.1mb 40f 28f
11:50 3.5ft 4s 4s 20 27 mph 1018.7mb 40f 28f
10:50 3.5ft 4s 4s 20 25 mph 1019.9mb 40f 27f
9:50 3ft 11s 4s 18 25 mph 1020.3mb 40f 26f
8:50 3ft 11s 4s 16 18 mph 1020.4mb 40f 25f
7:50 3ft 11s 4s 13 18 mph 1020.3mb 40f 24f
6:50 3ft 11s 5s 16 20 mph 1020.1mb 40f 19f
5:50 2.5ft 11s 4s 13 16 mph 1019.7mb 40f 18f
4:50 2.5ft 12s 4s 13 18 mph 1019.3mb 40f 18f
3:50 3.5ft 4s 4s 13 18 mph 1019.2mb 40f 18f
2:50 3.5ft 4s 4s 18 25 mph 1018.1mb 40f 18f
1:50 4.5ft 4s 4s 22 29 mph 1017.6mb 40f 20f
12:50 4.5ft 5s 4s 25 31 mph 1017.1mb 40f 22f
Dom 01/25 11:50 4.5ft 4s 4s 29 34 mph 1015.9mb 40f 23f
10:50 3.5ft 4s 4s 25 29 mph 1015.5mb 41f 25f
9:50 3.5ft 4s 4s 22 27 mph 1014.7mb 41f 27f
8:50  -   -   -  22 27 mph 1014.1mb 41f 28f
7:50 3.5ft 13s 4s 22 27 mph 1012.7mb 41f 29f
6:50 3.5ft 12s 4s 25 29 mph 1011mb 41f 31f
5:50 4ft 12s 4s 25 29 mph 1008.7mb 41f 34f
4:50 4ft 12s 4s 25 29 mph 1007.2mb 41f 35f
3:50 3.5ft 13s 4s 20 27 mph 1005.9mb 41f 36f
2:50 4ft 13s 5s 22 27 mph 1004.6mb 41f 36f
1:50 4ft 13s 4s 22 29 mph 1003mb 41f 37f
12:50 4ft 4s 4s 27 31 mph 1002.2mb 41f 37f
11:50 4ft 4s 4s 27 34 mph 1002mb 41f 37f
10:50 4ft 4s 4s 29 36 mph 1001.1mb 41f 37f
9:50 3.5ft 14s 4s 27 31 mph 1000.5mb 41f 37f
8:50 4.5ft 4s 4s 27 34 mph 999.6mb 41f 36f
7:50 4ft 4s 4s 29 34 mph 998.4mb 40f 36f
6:50 4.5ft 14s 5s 25 31 mph 997.5mb 40f 34f
5:50 4.5ft 12s 5s 22 29 mph 996.7mb 40f 34f
4:50 4.5ft 8s 5s 25 29 mph 995.5mb 40f 34f
3:50 5ft 11s 5s 25 29 mph 994.5mb 40f 34f
2:50 5ft 7s 5s 27 31 mph 993.5mb 40f 34f
1:50 5ft 8s 5s 25 31 mph 992.3mb 40f 35f
12:50 5.5ft 7s 5s 25 29 mph 991.4mb 40f 35f
Sáb 01/24 11:50 6.5ft 7s 5s 22 27 mph 990.8mb 40f 35f
10:50 6.5ft 7s 5s 20 25 mph 990.3mb 40f 34f
9:50 6ft 7s 5s 20 25 mph 989.9mb 40f 32f
8:50 6.5ft 7s 5s 25 27 mph 988.5mb 40f 32f
7:50  -   -   -  25 31 mph 987.7mb 40f 33f
6:50 6ft 6s 5s 25 29 mph 987.4mb 40f 33f
5:50 6ft 6s 5s 27 31 mph 986.7mb 40f 35f
4:50 5.5ft 5s 5s 29 36 mph 985.7mb 40f 36f
3:50 4.5ft 5s 4s 27 36 mph 987.9mb 40f 37f
2:50 4ft 4s 4s 25 29 mph 991.1mb 40f 37f
1:50 3ft 4s 4s 25 29 mph 991.8mb 40f 37f
12:50 2.5ft 3s 3s 22 27 mph 994.8mb 40f 36f
11:50 1.6ft 10s 4s 20 22 mph 997.1mb 40f 34f
10:50 1.6ft 9s 7s 13 16 mph 1001.2mb 40f 33f
9:50 1.3ft 9s 7s 11 13 mph 1002.9mb 40f 34f
8:50 1.3ft 9s 6s 7
mph
1004.8mb 40f 33f
7:50 1.3ft 10s 5s 7
mph
1007.3mb 40f 33f
6:50 2ft 10s 4s 9 11 mph 1008.6mb 40f 33f
5:50  -   -   -  18 22 mph 1009.3mb 40f 33f
4:50 2ft 11s 4s 18 20 mph 1008.9mb 40f 35f
3:50 2ft 11s 4s 16 20 mph 1009.6mb 40f 34f
2:50 2.5ft 11s 4s 16 20 mph 1010.7mb 40f 34f
1:50 2.5ft 11s 4s 18 22 mph 1012mb 40f 33f
12:50 2.5ft 10s 5s 18 20 mph 1012.7mb 40f 33f
Sex 01/23 11:50 3.5ft 11s 5s 16 20 mph 1013.3mb 40f 33f
10:50 4ft 11s 5s 20 27 mph 1014.7mb 40f 33f
9:50 4.5ft 9s 5s 16 20 mph 1015.2mb 40f 33f
8:50 4.5ft 9s 5s 20 25 mph 1016.5mb 40f 33f
7:50 4.5ft 10s 6s 20 25 mph 1017.4mb 40f 33f
6:50 3.5ft 11s 6s 20 22 mph 1017.4mb 40f 34f
5:50 4.5ft 11s 8s 16 20 mph 1017.7mb 40f 36f